Find Starlink 2162

NORAD ID: 47748 Int'l Des: 2021-017 Owner: SPXS Country: US Constellation: starlink operational
LEOCIRCULAR

Live-Position

3D-Globus wird geladen...

Über Starlink 2162

Beschreibung wird geladen...

Nächste Überflüge

Passes for default location (London). Set your location on the main map for personalized predictions.

Höhenverlauf

Loading altitude history...

Zweizeiliger Elementsatz

1 47748U 21017AC 26138.93306082 .00066021 00000-0 72262-3 0 9999
2 47748 53.1543 213.8547 0008266 47.5249 312.6463 15.62662079288935
Epoch: 18. Mai 2026 • Age: 14 hours

Aktueller Status

Höhe 375.1 km
Geschwindigkeit 7.69 km/s
Subsatellitenpunkt 15.27°N, 161.25°E
Startdatum 4. März 2021
Alter 5.2 years
Typ internet

Technische Details

Klassifizierung Payload
Masse 260.00 kg
Trockenmasse 248.00 kg
Gesamtmasse 260.00 kg
Länge 0.20 m
Durchmesser 2.80 m
Spannweite 9.00 m
Form Box + pan
Hersteller SPXS
Bus-Typ Starlink
Phasenstatus In Orbit
Besitzer/Staat SPXS/US

Most Searched